Pecos, TX

7:25 PM CDT on October 21, 2017 (GMT -0500)
Pecos Municipal

Weather History for KPEQ - October, 2012

Change the Weather History Date:

Monday, October 29, 2012

  Actual Average Record
Temperature  
Mean Temperature 56 °F -  
Max Temperature 77 °F 75 °F 93 °F (1946)
Min Temperature 35 °F 42 °F 29 °F (1970)
Degree Days  
Heating Degree Days 9    
Growing Degree Days 6 (Base 50)    
Moisture  
Dew Point 35 °F    
Average Humidity 58    
Maximum Humidity 85    
Minimum Humidity 25    
Precipitation  
Precipitation 0.00 in - - ()
Sea Level Pressure  
Sea Level Pressure 30.13 in    
Wind  
Wind Speed 4 mph (NNE)    
Max Wind Speed 12 mph    
Max Gust Speed -    
Visibility 10 miles    
Events      
Averages and records for this station are not official NWS values.
T = Trace of Precipitation, MM = Missing Value Source: NWS Daily Summary

Daily Weather History Graph

Daily Weather History Graph

Search for Another Location

Airport or City:

Trip Planner

Search our weather history database for the weather conditions in past years. The results will help you decide how hot, cold, wet, or windy it might be!

Date:

Astronomy

Oct. 29, 2012 Rise Set
Actual Time 8:07 AM CDT 7:07 PM CDT
Civil Twilight 7:42 AM CDT 7:32 PM CDT
Nautical Twilight 7:14 AM CDT 8:00 PM CDT
Astronomical Twilight 6:45 AM CDT 8:29 PM CDT
Moon 7:03 PM CDT (10/29) 7:58 AM CDT (10/29)
Length of Visible Light 11h 49m
Length of Day
10h 59m
Full, 100% of the Moon is Illuminated
Oct 29
Full
Oct 29
Full
Nov 6
Last Quarter
Nov 13
New
Nov 20
First Quarter

Hourly Weather History & Observations

Time (CDT) Temp. Windchill Dew Point Humidity Pressure Visibility Wind Dir Wind Speed Gust Speed Precip Events Conditions
12:15 AM 46.9 °F - 34.7 °F 62% 30.13 in 10.0 mi NE 5.8 mph - N/A   Clear
12:35 AM 46.9 °F - 34.7 °F 62% 30.13 in 10.0 mi NE 4.6 mph - N/A   Clear
12:55 AM 46.0 °F 43.9 °F 34.3 °F 64% 30.13 in 10.0 mi ENE 4.6 mph - N/A   Clear
1:15 AM 46.4 °F - 34.2 °F 62% 30.13 in 10.0 mi Calm Calm - N/A   Clear
1:35 AM 46.4 °F - 33.8 °F 62% 30.13 in 10.0 mi Calm Calm - N/A   Clear
1:55 AM 44.8 °F 41.6 °F 34.2 °F 66% 30.15 in 10.0 mi North 5.8 mph - N/A   Clear
2:15 AM 45.7 °F 44.4 °F 34.0 °F 64% 30.14 in 10.0 mi North 3.5 mph - N/A   Clear
2:35 AM 43.0 °F 41.3 °F 33.3 °F 69% 30.14 in 10.0 mi NNW 3.5 mph - N/A   Clear
2:55 AM 41.9 °F - 32.9 °F 70% 30.14 in 10.0 mi Calm Calm - N/A   Clear
3:15 AM 40.8 °F - 32.7 °F 73% 30.13 in 10.0 mi Calm Calm - N/A   Clear
3:35 AM 40.8 °F - 32.4 °F 72% 30.13 in 10.0 mi Calm Calm - N/A   Clear
3:55 AM 39.7 °F - 32.5 °F 75% 30.12 in 10.0 mi Calm Calm - N/A   Clear
4:15 AM 40.1 °F 36.9 °F 32.7 °F 75% 30.13 in 10.0 mi NNW 4.6 mph - N/A   Clear
4:35 AM 39.6 °F 36.3 °F 32.5 °F 76% 30.13 in 10.0 mi WNW 4.6 mph - N/A   Clear
4:55 AM 37.8 °F 35.3 °F 32.0 °F 80% 30.13 in 10.0 mi WNW 3.5 mph - N/A   Clear
5:15 AM 37.6 °F 33.1 °F 32.0 °F 80% 30.14 in 10.0 mi NW 5.8 mph - N/A   Clear
5:55 AM 38.1 °F 34.6 °F 32.0 °F 79% 30.14 in 10.0 mi NNW 4.6 mph - N/A   Clear
6:15 AM 37.8 °F 35.3 °F 32.0 °F 80% 30.15 in 10.0 mi NW 3.5 mph - N/A   Clear
6:35 AM 36.7 °F 32.9 °F 31.8 °F 83% 30.15 in 10.0 mi NW 4.6 mph - N/A   Clear
6:55 AM 36.9 °F 33.1 °F 31.8 °F 82% 30.15 in 10.0 mi NW 4.6 mph - N/A   Clear
7:15 AM 36.1 °F 33.5 °F 31.6 °F 84% 30.15 in 10.0 mi WNW 3.5 mph - N/A   Clear
7:35 AM 36.3 °F 32.5 °F 31.6 °F 83% 30.16 in 10.0 mi WNW 4.6 mph - N/A   Clear
7:55 AM 36.1 °F 33.5 °F 31.5 °F 83% 30.16 in 10.0 mi NW 3.5 mph - N/A   Clear
8:15 AM 35.6 °F 31.7 °F 31.5 °F 85% 30.17 in 10.0 mi WNW 4.6 mph - N/A   Clear
8:35 AM 36.7 °F 32.9 °F 32.0 °F 83% 30.17 in 10.0 mi WNW 4.6 mph - N/A   Clear
8:55 AM 39.2 °F 35.0 °F 32.9 °F 78% 30.18 in 10.0 mi NW 5.8 mph - N/A   Clear
9:35 AM 43.7 °F - 34.3 °F 70% 30.19 in 10.0 mi Calm Calm - N/A   Clear
9:55 AM 45.3 °F - 34.7 °F 66% 30.20 in 10.0 mi Calm Calm - N/A   Clear
10:15 AM 47.1 °F - 34.9 °F 62% 30.20 in 10.0 mi Calm Calm - N/A   Clear
10:35 AM 49.3 °F - 35.4 °F 59% 30.20 in 10.0 mi Calm Calm - N/A   Clear
10:55 AM 51.1 °F - 35.6 °F 55% 30.20 in 10.0 mi NNE 3.5 mph - N/A   Clear
11:15 AM 52.9 °F - 36.0 °F 53% 30.21 in 10.0 mi North 3.5 mph - N/A   Clear
11:35 AM 54.7 °F - 36.1 °F 50% 30.20 in 10.0 mi NE 3.5 mph - N/A   Clear
11:55 AM 55.8 °F - 36.5 °F 48% 30.20 in 10.0 mi Calm Calm - N/A   Clear
12:15 PM 57.9 °F - 37.0 °F 46% 30.19 in 10.0 mi North 3.5 mph - N/A   Clear
1:15 PM 65.5 °F - 38.3 °F 37% 30.16 in 10.0 mi Calm Calm - N/A   Clear
1:55 PM 68.5 °F - 38.3 °F 33% 30.13 in 10.0 mi ESE 3.5 mph - N/A   Clear
2:15 PM 70.0 °F - 38.5 °F 32% 30.12 in 10.0 mi East 4.6 mph - N/A   Clear
2:35 PM 71.1 °F - 38.7 °F 31% 30.11 in 10.0 mi East 4.6 mph - N/A   Clear
3:15 PM 74.5 °F - 40.1 °F 29% 30.08 in 10.0 mi East 6.9 mph - N/A   Clear
3:35 PM 75.6 °F - 40.3 °F 28% 30.07 in 10.0 mi East 5.8 mph - N/A   Clear
3:55 PM 76.1 °F - 40.1 °F 27% 30.06 in 10.0 mi East 8.1 mph - N/A   Clear
4:15 PM 76.6 °F - 39.6 °F 26% 30.05 in 10.0 mi East 6.9 mph - N/A   Clear
4:35 PM 77.4 °F - 39.9 °F 26% 30.05 in 10.0 mi ESE 6.9 mph - N/A   Clear
4:55 PM 77.7 °F - 39.0 °F 25% 30.05 in 10.0 mi East 6.9 mph - N/A   Clear
5:15 PM 77.9 °F - 39.0 °F 25% 30.04 in 10.0 mi ESE 8.1 mph - N/A   Clear
5:35 PM 77.4 °F - 39.2 °F 25% 30.03 in 10.0 mi East 11.5 mph - N/A   Clear
5:55 PM 77.0 °F - 39.4 °F 26% 30.03 in 10.0 mi East 9.2 mph - N/A   Clear
6:15 PM 76.1 °F - 37.8 °F 25% 30.03 in 10.0 mi ESE 9.2 mph - N/A   Clear
10:35 PM 54.3 °F - 39.2 °F 57% 30.06 in 10.0 mi ENE 4.6 mph - N/A   Clear
10:55 PM 53.6 °F - 39.2 °F 58% 30.06 in 10.0 mi ENE 4.6 mph - N/A   Clear
11:15 PM 52.2 °F - 38.7 °F 60% 30.05 in 10.0 mi ENE 6.9 mph - N/A   Clear
11:35 PM 50.9 °F - 38.5 °F 62% 30.05 in 10.0 mi NE 6.9 mph - N/A   Clear
11:55 PM 50.2 °F - 38.5 °F 64% 30.05 in 10.0 mi NE 5.8 mph - N/A   Clear